IK6IHU-3 Weather Reports


time (UTC)temp
C
wind
direction
speed
KPH
gust
KPH
rain 1hr
cm
rain 24hr
cm
rain mn
cm
humidity
%
barometer
mb
20260505102123 17 103 1.6 6.4 0.00 0.00 0.00 56 1014.7
20260505102023 17 107 1.6 6.4 0.00 0.00 0.00 56 1014.7
20260505101923 17 108 0.0 6.4 0.00 0.00 0.00 57 1014.7
20260505101823 17 106 0.0 6.4 0.00 0.00 0.00 57 1014.7
20260505101723 17 101 1.6 6.4 0.00 0.00 0.00 57 1014.6
20260505101623 17 97 1.6 6.4 0.00 0.00 0.00 57 1014.6
20260505101523 17 98 3.2 6.4 0.00 0.00 0.00 57 1014.5
20260505101423 17 98 1.6 6.4 0.00 0.00 0.00 57 1014.5
20260505101323 17 99 1.6 6.4 0.00 0.00 0.00 57 1014.6
20260505101222 17 98 3.2 6.4 0.00 0.00 0.00 57 1014.6
20260505101122 17 101 1.6 6.4 0.00 0.00 0.00 56 1014.7
20260505101023 17 100 1.6 6.4 0.00 0.00 0.00 57 1014.7
20260505100923 17 99 0.0 6.4 0.00 0.00 0.00 57 1014.7
20260505100823 17 98 0.0 6.4 0.00 0.00 0.00 57 1014.9
20260505100722 17 95 3.2 6.4 0.00 0.00 0.00 57 1014.6
20260505100622 17 97 3.2 6.4 0.00 0.00 0.00 57 1014.6
20260505100523 17 98 3.2 9.7 0.00 0.00 0.00 57 1014.7
20260505100423 17 98 1.6 9.7 0.00 0.00 0.00 59 1014.6
20260505100323 17 98 3.2 9.7 0.00 0.00 0.00 58 1014.6
20260505100223 17 99 4.8 9.7 0.00 0.00 0.00 57 1014.8
20260505100123 17 97 3.2 9.7 0.00 0.00 0.00 59 1014.6
20260505100023 17 100 3.2 9.7 0.00 0.00 0.00 57 1014.7
20260505095922 17 100 3.2 9.7 0.00 0.00 0.00 59 1014.6
20260505095823 17 100 3.2 9.7 0.00 0.00 0.00 62 1014.4
20260505095723 17 104 6.4 9.7 0.00 0.00 0.00 61 1014.5
20260505095623 16 108 6.4 9.7 0.00 0.00 0.00 61 1014.4
20260505095522 16 108 6.4 9.7 0.00 0.00 0.00 61 1014.5
20260505095423 17 109 3.2 6.4 0.00 0.00 0.00 63 1014.5
20260505095322 16 110 3.2 6.4 0.00 0.00 0.00 62 1014.5
20260505095223 16 110 3.2 6.4 0.00 0.00 0.00 62 1014.6
20260505095122 16 109 1.6 6.4 0.00 0.00 0.00 61 1014.5
20260505095022 16 109 1.6 6.4 0.00 0.00 0.00 62 1014.6
20260505094923 16 109 3.2 6.4 0.00 0.00 0.00 63 1014.5
20260505094823 16 105 3.2 6.4 0.00 0.00 0.00 63 1014.6
20260505094723 16 102 3.2 6.4 0.00 0.00 0.00 62 1014.5
20260505094622 16 95 3.2 6.4 0.00 0.00 0.00 63 1014.5
20260505094523 16 89 3.2 6.4 0.00 0.00 0.00 63 1014.4
20260505094423 16 85 3.2 6.4 0.00 0.00 0.00 63 1014.4
20260505094323 16 82 3.2 6.4 0.00 0.00 0.00 63 1014.6
20260505094223 16 80 3.2 9.7 0.00 0.00 0.00 63 1014.5
20260505094123 16 81 4.8 9.7 0.00 0.00 0.00 63 1014.7
20260505094023 16 80 3.2 9.7 0.00 0.00 0.00 64 1014.8
20260505093923 16 83 3.2 9.7 0.00 0.00 0.00 63 1014.7
20260505093823 16 86 3.2 9.7 0.00 0.00 0.00 64 1014.8
20260505093722 16 88 3.2 9.7 0.00 0.00 0.00 63 1014.7
20260505093623 16 92 4.8 9.7 0.00 0.00 0.00 64 1014.8
20260505093522 16 96 3.2 9.7 0.00 0.00 0.00 65 1014.8
20260505093423 16 98 3.2 9.7 0.00 0.00 0.00 64 1014.7
20260505093323 16 99 4.8 9.7 0.00 0.00 0.00 63 1014.5
20260505093222 16 99 4.8 9.7 0.00 0.00 0.00 64 1014.5
20260505093123 16 98 6.4 9.7 0.00 0.00 0.00 64 1014.9
20260505093023 16 96 4.8 6.4 0.00 0.00 0.00 64 1014.4
20260505092923 16 94 3.2 6.4 0.00 0.00 0.00 65 1014.7
20260505092823 16 93 4.8 11.3 0.00 0.00 0.00 65 1014.5
20260505092723 16 91 3.2 11.3 0.00 0.00 0.00 66 1014.6
20260505092623 16 93 3.2 11.3 0.00 0.00 0.00 64 1014.7
20260505092523 16 93 3.2 11.3 0.00 0.00 0.00 65 1014.7
20260505092423 16 94 3.2 11.3 0.00 0.00 0.00 66 1014.7
20260505092323 16 97 3.2 11.3 0.00 0.00 0.00 66 1014.6
20260505092223 16 100 3.2 11.3 0.00 0.00 0.00 65 1014.8
20260505092123 16 106 6.4 11.3 0.00 0.00 0.00 65 1014.6
20260505092023 16 110 6.4 11.3 0.00 0.00 0.00 65 1014.5
20260505091923 16 116 6.4 11.3 0.00 0.00 0.00 65 1014.6
20260505091822 16 123 4.8 6.4 0.00 0.00 0.00 65 1014.5
20260505091723 16 131 3.2 6.4 0.00 0.00 0.00 64 1014.7
20260505091623 16 133 4.8 6.4 0.00 0.00 0.00 64 1014.9
20260505091523 16 143 3.2 6.4 0.00 0.00 0.00 65 1014.9
20260505091423 16 151 3.2 6.4 0.00 0.00 0.00 64 1014.8
20260505091322 16 147 3.2 6.4 0.00 0.00 0.00 64 1014.9
20260505091223 16 151 3.2 6.4 0.00 0.00 0.00 64 1014.8
20260505091122 16 154 3.2 6.4 0.00 0.00 0.00 65 1014.9
20260505091023 16 153 6.4 6.4 0.00 0.00 0.00 64 1014.8
20260505090923 16 154 3.2 9.7 0.00 0.00 0.00 64 1014.6
20260505090823 16 153 4.8 9.7 0.00 0.00 0.00 64 1014.8
20260505090723 16 148 4.8 9.7 0.00 0.00 0.00 63 1014.6
20260505090622 16 146 3.2 9.7 0.00 0.00 0.00 63 1014.8
20260505090522 16 140 3.2 9.7 0.00 0.00 0.00 63 1014.8
20260505090423 16 131 3.2 9.7 0.00 0.00 0.00 64 1014.7
20260505090323 16 134 3.2 9.7 0.00 0.00 0.00 64 1014.8
20260505090222 16 130 3.2 9.7 0.00 0.00 0.00 64 1014.8
20260505090123 16 127 4.8 9.7 0.00 0.00 0.00 64 1014.8
20260505090023 16 125 6.4 9.7 0.00 0.00 0.00 64 1014.5
20260505085922 16 123 6.4 9.7 0.00 0.00 0.00 65 1014.7
20260505085822 16 124 6.4 9.7 0.00 0.00 0.00 64 1014.7
20260505085723 16 130 3.2 6.4 0.00 0.00 0.00 64 1014.7
20260505085622 16 140 3.2 6.4 0.00 0.00 0.00 64 1014.6
20260505085523 16 145 3.2 9.7 0.00 0.00 0.00 64 1014.8
20260505085423 16 148 3.2 9.7 0.00 0.00 0.00 64 1014.8
20260505085322 16 149 3.2 9.7 0.00 0.00 0.00 63 1014.8
20260505085222 16 150 3.2 9.7 0.00 0.00 0.00 63 1014.5
20260505085122 16 154 3.2 9.7 0.00 0.00 0.00 62 1014.7
20260505085023 16 161 6.4 9.7 0.00 0.00 0.00 63 1014.8
20260505084922 16 167 4.8 9.7 0.00 0.00 0.00 63 1014.8
20260505084823 16 168 4.8 9.7 0.00 0.00 0.00 64 1014.6
20260505084722 16 167 3.2 9.7 0.00 0.00 0.00 64 1014.7
20260505084623 16 162 6.4 9.7 0.00 0.00 0.00 62 1014.5
20260505084523 16 162 6.4 9.7 0.00 0.00 0.00 61 1014.6
20260505084422 16 165 6.4 9.7 0.00 0.00 0.00 61 1014.6
20260505084323 16 163 6.4 9.7 0.00 0.00 0.00 61 1014.6
20260505084224 16 163 3.2 6.4 0.00 0.00 0.00 61 1014.7
20260505084123 16 162 4.8 6.4 0.00 0.00 0.00 61 1014.6
20260505084023 16 150 6.4 6.4 0.00 0.00 0.00 60 1014.8
20260505083922 16 146 6.4 9.7 0.00 0.00 0.00 61 1014.6
20260505083823 17 139 1.6 9.7 0.00 0.00 0.00 64 1014.7
20260505083723 17 134 1.6 9.7 0.00 0.00 0.00 65 1014.6
20260505083622 17 134 0.0 9.7 0.00 0.00 0.00 65 1014.6
20260505083523 16 139 1.6 9.7 0.00 0.00 0.00 65 1014.6
20260505083423 17 138 3.2 9.7 0.00 0.00 0.00 66 1014.7
20260505083322 17 143 3.2 9.7 0.00 0.00 0.00 65 1014.6
20260505083222 17 143 1.6 9.7 0.00 0.00 0.00 65 1014.5
20260505083123 17 148 3.2 9.7 0.00 0.00 0.00 64 1014.7
20260505083023 17 167 6.4 9.7 0.00 0.00 0.00 64 1014.3
20260505082923 17 195 4.8 9.7 0.00 0.00 0.00 63 1014.4
20260505082823 17 216 3.2 9.7 0.00 0.00 0.00 63 1014.5
20260505082723 17 226 3.2 9.7 0.00 0.00 0.00 62 1014.6
20260505082623 17 234 1.6 9.7 0.00 0.00 0.00 59 1014.6
20260505082523 17 237 1.6 9.7 0.00 0.00 0.00 60 1014.7
20260505082423 17 244 3.2 9.7 0.00 0.00 0.00 60 1014.6
20260505082323 17 245 0.0 9.7 0.00 0.00 0.00 60 1014.6
20260505082222 17 242 3.2 9.7 0.00 0.00 0.00 61 1014.6
20260505082122 16 242 4.8 9.7 0.00 0.00 0.00 61 1014.9
20260505082022 16 243 4.8 9.7 0.00 0.00 0.00 61 1014.6
20260505081923 16 245 6.4 9.7 0.00 0.00 0.00 61 1014.7
20260505081823 16 243 3.2 9.7 0.00 0.00 0.00 63 1014.7
20260505081723 16 243 3.2 9.7 0.00 0.00 0.00 62 1014.9
20260505081623 16 240 3.2 9.7 0.00 0.00 0.00 63 1014.8
20260505081522 16 239 3.2 9.7 0.00 0.00 0.00 63 1014.8
20260505081423 16 237 3.2 9.7 0.00 0.00 0.00 65 1014.5
20260505081322 16 238 3.2 9.7 0.00 0.00 0.00 65 1014.7
20260505081223 16 242 3.2 9.7 0.00 0.00 0.00 65 1014.8
20260505081122 16 246 3.2 9.7 0.00 0.00 0.00 64 1014.6
20260505081023 16 246 3.2 9.7 0.00 0.00 0.00 64 1014.5
20260505080922 16 248 3.2 9.7 0.00 0.00 0.00 63 1014.7
20260505080823 16 257 4.8 9.7 0.00 0.00 0.00 64 1014.8
20260505080724 16 266 4.8 9.7 0.00 0.00 0.00 62 1014.6
20260505080623 16 279 1.6 6.4 0.00 0.00 0.00 61 1014.6
20260505080523 16 281 1.6 6.4 0.00 0.00 0.00 61 1014.6
20260505080422 16 285 3.2 6.4 0.00 0.00 0.00 62 1014.8
20260505080322 16 286 1.6 6.4 0.00 0.00 0.00 64 1014.7
20260505080222 16 283 0.0 6.4 0.00 0.00 0.00 63 1014.7
20260505080123 16 281 3.2 6.4 0.00 0.00 0.00 63 1014.7
20260505080023 15 276 4.8 6.4 0.00 0.00 0.00 62 1014.7
20260505075923 15 264 4.8 6.4 0.00 0.00 0.00 62 1014.7
20260505075822 16 250 3.2 6.4 0.00 0.00 0.00 63 1014.6
20260505075723 15 228 3.2 6.4 0.00 0.00 0.00 61 1014.6
20260505075623 15 193 3.2 3.2 0.00 0.00 0.00 62 1014.5
20260505075523 15 170 1.6 3.2 0.00 0.00 0.00 63 1014.7
20260505075422 15 154 1.6 3.2 0.00 0.00 0.00 63 1014.6
20260505075323 15 145 1.6 3.2 0.00 0.00 0.00 63 1014.6
20260505075223 16 136 3.2 3.2 0.00 0.00 0.00 65 1014.5
20260505075122 16 127 1.6 3.2 0.00 0.00 0.00 64 1014.6
20260505075022 15 120 3.2 3.2 0.00 0.00 0.00 63 1014.6
20260505074922 16 108 1.6 3.2 0.00 0.00 0.00 64 1014.6
20260505074823 16 99 1.6 3.2 0.00 0.00 0.00 64 1014.9
20260505074722 16 88 1.6 3.2 0.00 0.00 0.00 64 1014.5
20260505074622 16 72 1.6 3.2 0.00 0.00 0.00 64 1014.6
20260505074523 16 62 1.6 3.2 0.00 0.00 0.00 65 1014.5
20260505074423 16 59 0.0 3.2 0.00 0.00 0.00 64 1014.6
20260505074323 16 63 0.0 3.2 0.00 0.00 0.00 64 1014.6
20260505074223 16 66 0.0 3.2 0.00 0.00 0.00 64 1014.4
20260505074123 15 70 0.0 3.2 0.00 0.00 0.00 64 1014.6
20260505074022 15 74 0.0 3.2 0.00 0.00 0.00 64 1014.7
20260505073922 15 80 0.0 3.2 0.00 0.00 0.00 64 1014.6
20260505073822 16 82 0.0 3.2 0.00 0.00 0.00 65 1014.5
20260505073723 16 83 1.6 3.2 0.00 0.00 0.00 65 1014.6
20260505073622 16 89 1.6 3.2 0.00 0.00 0.00 65 1014.6
20260505073522 16 89 1.6 3.2 0.00 0.00 0.00 64 1014.6
20260505073423 16 89 1.6 3.2 0.00 0.00 0.00 64 1014.6
20260505073322 16 85 1.6 3.2 0.00 0.00 0.00 64 1014.5
20260505073222 16 81 0.0 3.2 0.00 0.00 0.00 65 1014.8
20260505073123 16 74 0.0 6.4 0.00 0.00 0.00 64 1014.6
20260505073023 15 66 1.6 6.4 0.00 0.00 0.00 64 1014.7
20260505072923 15 63 1.6 6.4 0.00 0.00 0.00 65 1014.9
20260505072822 16 63 0.0 6.4 0.00 0.00 0.00 67 1014.6
20260505072722 16 60 0.0 6.4 0.00 0.00 0.00 67 1014.7
20260505072623 16 58 0.0 6.4 0.00 0.00 0.00 66 1014.5
20260505072523 16 56 0.0 6.4 0.00 0.00 0.00 67 1014.7
20260505072422 16 52 1.6 6.4 0.00 0.00 0.00 66 1014.6
20260505072322 16 50 0.0 6.4 0.00 0.00 0.00 66 1014.7
20260505072222 16 47 3.2 6.4 0.00 0.00 0.00 64 1014.5
20260505072122 16 44 3.2 6.4 0.00 0.00 0.00 63 1014.6
20260505072022 16 44 3.2 6.4 0.00 0.00 0.00 63 1014.6
20260505071923 15 41 3.2 6.4 0.00 0.00 0.00 62 1014.4
20260505071822 16 38 3.2 6.4 0.00 0.00 0.00 64 1014.2
20260505071723 16 42 3.2 6.4 0.00 0.00 0.00 64 1014.5
20260505071623 16 43 3.2 6.4 0.00 0.00 0.00 63 1014.4
20260505071523 16 43 3.2 6.4 0.00 0.00 0.00 63 1014.7
20260505071422 16 48 3.2 3.2 0.00 0.00 0.00 64 1014.5
20260505071322 16 48 1.6 3.2 0.00 0.00 0.00 64 1014.5
20260505071222 16 54 1.6 3.2 0.00 0.00 0.00 64 1014.4
20260505071122 16 56 0.0 3.2 0.00 0.00 0.00 63 1014.4
20260505071023 16 56 0.0 3.2 0.00 0.00 0.00 62 1014.4
20260505070923 16 60 1.6 3.2 0.00 0.00 0.00 62 1014.4
20260505070822 16 63 1.6 3.2 0.00 0.00 0.00 62 1014.2
20260505070722 16 65 0.0 3.2 0.00 0.00 0.00 62 1014.5
20260505070622 16 68 1.6 3.2 0.00 0.00 0.00 61 1014.4
20260505070522 16 78 1.6 3.2 0.00 0.00 0.00 61 1014.4
20260505070422 16 86 1.6 3.2 0.00 0.00 0.00 60 1014.5
20260505070323 16 92 1.6 3.2 0.00 0.00 0.00 60 1014.4
20260505070222 16 94 1.6 3.2 0.00 0.00 0.00 60 1014.5
20260505070122 16 96 1.6 6.4 0.00 0.00 0.00 60 1014.5
20260505070022 16 98 1.6 6.4 0.00 0.00 0.00 60 1014.6
20260505065922 16 98 1.6 6.4 0.00 0.00 0.00 59 1014.4
20260505065822 16 98 0.0 6.4 0.00 0.00 0.00 61 1014.5
20260505065722 16 97 0.0 6.4 0.00 0.00 0.00 61 1014.6
20260505065623 16 97 0.0 6.4 0.00 0.00 0.00 62 1014.7
20260505065522 16 97 0.0 6.4 0.00 0.00 0.00 61 1014.5
20260505065423 16 97 0.0 6.4 0.00 0.00 0.00 61 1014.4
20260505065323 16 96 1.6 6.4 0.00 0.00 0.00 61 1014.6
20260505065222 16 98 1.6 6.4 0.00 0.00 0.00 61 1014.4
20260505065122 16 97 3.2 6.4 0.00 0.00 0.00 62 1014.3
20260505065022 16 97 1.6 6.4 0.00 0.00 0.00 63 1014.4
20260505064922 16 97 0.0 6.4 0.00 0.00 0.00 63 1014.4
20260505064822 16 94 1.6 6.4 0.00 0.00 0.00 63 1014.3
20260505064722 16 95 3.2 6.4 0.00 0.00 0.00 62 1014.4
20260505064623 16 94 3.2 6.4 0.00 0.00 0.00 62 1014.3
20260505064523 16 92 1.6 6.4 0.00 0.00 0.00 63 1014.4
20260505064422 16 94 3.2 6.4 0.00 0.00 0.00 62 1014.2
20260505064322 16 98 3.2 3.2 0.00 0.00 0.00 62 1014.3
20260505064222 16 98 3.2 3.2 0.00 0.00 0.00 62 1014.3
20260505064123 16 101 1.6 3.2 0.00 0.00 0.00 62 1014.0
20260505064022 16 105 3.2 3.2 0.00 0.00 0.00 62 1014.2
20260505063923 16 107 3.2 3.2 0.00 0.00 0.00 62 1014.2
20260505063822 16 113 3.2 3.2 0.00 0.00 0.00 61 1014.3
20260505063722 16 111 0.0 3.2 0.00 0.00 0.00 64 1014.2
20260505063622 16 109 0.0 3.2 0.00 0.00 0.00 64 1014.0
20260505063522 16 108 1.6 3.2 0.00 0.00 0.00 64 1014.2
20260505063422 16 107 3.2 3.2 0.00 0.00 0.00 63 1014.0
20260505063322 16 102 1.6 3.2 0.00 0.00 0.00 63 1014.1
20260505063222 16 99 1.6 3.2 0.00 0.00 0.00 63 1014.1
20260505063122 16 96 1.6 3.2 0.00 0.00 0.00 64 1014.2
20260505063022 16 90 0.0 3.2 0.00 0.00 0.00 64 1014.2
20260505062922 16 86 1.6 3.2 0.00 0.00 0.00 63 1014.2
20260505062822 16 77 1.6 3.2 0.00 0.00 0.00 62 1014.1
20260505062722 16 70 1.6 3.2 0.00 0.00 0.00 60 1014.1
20260505062622 16 62 0.0 3.2 0.00 0.00 0.00 64 1014.2
20260505062522 16 56 0.0 3.2 0.00 0.00 0.00 63 1014.2
20260505062422 16 52 0.0 3.2 0.00 0.00 0.00 63 1014.4
20260505062322 16 42 1.6 3.2 0.00 0.00 0.00 63 1014.2
20260505062222 17 33 0.0 3.2 0.00 0.00 0.00 60 1014.0
20260505062122 16 26 1.6 3.2 0.00 0.00 0.00 59 1014.2
20260505062022 17 20 1.6 3.2 0.00 0.00 0.00 59 1014.1
20260505061922 16 14 1.6 3.2 0.00 0.00 0.00 58 1014.0
20260505061823 16 10 1.6 3.2 0.00 0.00 0.00 57 1014.2
20260505061722 16 6 1.6 3.2 0.00 0.00 0.00 58 1014.1
20260505061622 16 359 0.0 3.2 0.00 0.00 0.00 58 1014.1
20260505061522 16 353 1.6 3.2 0.00 0.00 0.00 58 1013.9
20260505061422 16 343 3.2 3.2 0.00 0.00 0.00 57 1014.1
20260505061322 16 336 1.6 3.2 0.00 0.00 0.00 58 1014.0
20260505061222 16 333 1.6 3.2 0.00 0.00 0.00 58 1014.0
20260505061122 16 328 1.6 3.2 0.00 0.00 0.00 59 1014.3
20260505061022 16 317 3.2 3.2 0.00 0.00 0.00 61 1014.1
20260505060923 16 303 1.6 3.2 0.00 0.00 0.00 62 1014.1
20260505060822 16 291 1.6 3.2 0.00 0.00 0.00 63 1014.0
20260505060723 16 281 1.6 3.2 0.00 0.00 0.00 64 1014.1
20260505060623 16 274 3.2 3.2 0.00 0.00 0.00 63 1014.0
20260505060522 16 276 3.2 3.2 0.00 0.00 0.00 62 1013.9
20260505060422 15 284 1.6 3.2 0.00 0.00 0.00 62 1014.0
20260505060322 15 297 1.6 3.2 0.00 0.00 0.00 63 1013.8
20260505060222 15 313 0.0 3.2 0.00 0.00 0.00 64 1014.1
20260505060122 15 326 0.0 3.2 0.00 0.00 0.00 64 1013.9
20260505060023 15 347 0.0 3.2 0.00 0.00 0.00 64 1013.9
20260505055922 15 7 0.0 3.2 0.00 0.00 0.00 64 1013.8
20260505055822 15 14 0.0 3.2 0.00 0.00 0.00 65 1013.8
20260505055723 15 7 0.0 3.2 0.00 0.00 0.00 65 1014.0
20260505055622 15 2 0.0 3.2 0.00 0.00 0.00 65 1013.8
20260505055522 15 357 1.6 3.2 0.00 0.00 0.00 65 1013.9
20260505055422 15 344 1.6 6.4 0.00 0.00 0.00 64 1013.7
20260505055322 15 331 3.2 6.4 0.00 0.00 0.00 64 1013.8
20260505055222 15 320 1.6 6.4 0.00 0.00 0.00 64 1013.9
20260505055122 15 311 1.6 6.4 0.00 0.00 0.00 64 1013.8
20260505055022 15 303 3.2 6.4 0.00 0.00 0.00 64 1013.9
20260505054922 15 296 3.2 6.4 0.00 0.00 0.00 64 1013.8
20260505054822 15 292 1.6 6.4 0.00 0.00 0.00 64 1013.9
20260505054722 15 292 1.6 6.4 0.00 0.00 0.00 65 1013.8
20260505054622 15 292 1.6 6.4 0.00 0.00 0.00 66 1013.7
20260505054522 15 292 3.2 6.4 0.00 0.00 0.00 66 1013.7
20260505054422 15 292 3.2 6.4 0.00 0.00 0.00 66 1014.0
20260505054322 14 292 4.8 6.4 0.00 0.00 0.00 67 1014.1
20260505054222 15 289 3.2 6.4 0.00 0.00 0.00 67 1013.8
20260505054122 15 284 3.2 6.4 0.00 0.00 0.00 67 1013.8
20260505054022 15 282 3.2 6.4 0.00 0.00 0.00 66 1013.9
20260505053922 15 276 3.2 6.4 0.00 0.00 0.00 65 1014.0
20260505053822 15 260 0.0 3.2 0.00 0.00 0.00 64 1013.9
20260505053722 15 247 0.0 3.2 0.00 0.00 0.00 65 1013.8
20260505053622 15 247 0.0 3.2 0.00 0.00 0.00 65 1013.7
20260505053522 15 247 0.0 3.2 0.00 0.00 0.00 65 1013.7
20260505053422 15 247 0.0 3.2 0.00 0.00 0.00 66 1013.9
20260505053322 15 260 0.0 3.2 0.00 0.00 0.00 65 1013.9
20260505053222 16 276 0.0 3.2 0.00 0.00 0.00 64 1013.9
20260505053122 15 289 1.6 3.2 0.00 0.00 0.00 63 1013.8
20260505053023 15 292 0.0 3.2 0.00 0.00 0.00 61 1013.8
20260505052922 15 292 0.0 3.2 0.00 0.00 0.00 61 1013.8
20260505052822 15 292 0.0 3.2 0.00 0.00 0.00 61 1013.8
20260505052722 15 292 0.0 3.2 0.00 0.00 0.00 61 1013.6
20260505052622 15 292 0.0 3.2 0.00 0.00 0.00 61 1013.7
20260505052522 15 292 0.0 3.2 0.00 0.00 0.00 61 1013.7
20260505052422 15 292 0.0 3.2 0.00 0.00 0.00 62 1013.8
20260505052322 15 292 0.0 3.2 0.00 0.00 0.00 62 1013.8
20260505052222 15 292 1.6 3.2 0.00 0.00 0.00 63 1013.8
20260505052122 15 292 1.6 3.2 0.00 0.00 0.00 63 1013.9
20260505052023 15 292 0.0 3.2 0.00 0.00 0.00 63 1013.7
20260505051922 15 293 0.0 3.2 0.00 0.00 0.00 63 1013.7
20260505051822 15 297 0.0 3.2 0.00 0.00 0.00 63 1013.6
20260505051722 15 301 0.0 6.4 0.00 0.00 0.00 63 1013.7
20260505051622 15 301 0.0 6.4 0.00 0.00 0.00 63 1013.7
20260505051523 15 301 1.6 6.4 0.00 0.00 0.00 63 1013.8
20260505051422 15 301 1.6 6.4 0.00 0.00 0.00 64 1013.8
20260505051322 15 301 1.6 6.4 0.00 0.00 0.00 64 1013.6
20260505051222 15 301 1.6 6.4 0.00 0.00 0.00 64 1013.8
20260505051122 15 302 0.0 6.4 0.00 0.00 0.00 64 1013.7
20260505051022 15 304 1.6 6.4 0.00 0.00 0.00 64 1013.7
20260505050922 15 308 3.2 6.4 0.00 0.00 0.00 65 1013.7
20260505050822 15 312 3.2 6.4 0.00 0.00 0.00 65 1013.6
20260505050722 15 318 3.2 6.4 0.00 0.00 0.00 65 1013.5
20260505050622 15 333 3.2 3.2 0.00 0.00 0.00 64 1013.6
20260505050522 15 350 0.0 3.2 0.00 0.00 0.00 64 1013.6
20260505050422 15 5 0.0 3.2 0.00 0.00 0.00 64 1013.6
20260505050322 15 20 0.0 3.2 0.00 0.00 0.00 63 1013.6
20260505050222 15 25 0.0 3.2 0.00 0.00 0.00 62 1013.6
20260505050122 15 27 0.0 3.2 0.00 0.00 0.00 62 1013.6
20260505041722 14 279 3.2 3.2 0.00 0.00 0.00 68 1013.6
20260505041622 14 279 0.0 3.2 0.00 0.00 0.00 68 1013.6
20260505041522 14 281 0.0 3.2 0.00 0.00 0.00 68 1013.6
20260505041422 14 284 0.0 3.2 0.00 0.00 0.00 68 1013.6
20260505041322 14 289 1.6 3.2 0.00 0.00 0.00 68 1013.4
20260505041222 14 294 0.0 3.2 0.00 0.00 0.00 67 1013.5
20260505041122 15 296 0.0 3.2 0.00 0.00 0.00 67 1013.6
20260505041022 15 298 0.0 3.2 0.00 0.00 0.00 67 1013.4
20260505040923 15 299 1.6 3.2 0.00 0.00 0.00 67 1013.5
20260505040822 15 299 1.6 3.2 0.00 0.00 0.00 67 1013.4
20260505040722 15 298 3.2 6.4 0.00 0.00 0.00 67 1013.6
20260505040622 14 298 3.2 6.4 0.00 0.00 0.00 67 1013.6
20260505040522 14 298 1.6 6.4 0.00 0.00 0.00 68 1013.6
20260505040422 14 297 3.2 6.4 0.00 0.00 0.00 68 1013.5
20260505040322 14 295 3.2 6.4 0.00 0.00 0.00 68 1013.5
20260505040222 14 292 3.2 6.4 0.00 0.00 0.00 68 1013.5
20260505040122 14 288 3.2 6.4 0.00 0.00 0.00 68 1013.3
20260505040022 14 284 3.2 6.4 0.00 0.00 0.00 68 1013.4
20260505035922 14 282 3.2 6.4 0.00 0.00 0.00 68 1013.5
20260505035822 14 279 3.2 6.4 0.00 0.00 0.00 67 1013.6
20260505035722 14 271 3.2 3.2 0.00 0.00 0.00 68 1013.8
20260505035622 14 257 1.6 3.2 0.00 0.00 0.00 68 1013.6
20260505035522 14 247 0.0 3.2 0.00 0.00 0.00 68 1013.7
20260505035422 15 247 0.0 3.2 0.00 0.00 0.00 67 1013.7
20260505035322 15 247 0.0 3.2 0.00 0.00 0.00 67 1013.7
20260505035222 15 247 0.0 3.2 0.00 0.00 0.00 67 1013.6
20260505035122 15 270 1.6 3.2 0.00 0.00 0.00 67 1013.8
20260505035022 15 292 0.0 3.2 0.00 0.00 0.00 67 1013.7
20260505034922 15 292 0.0 3.2 0.00 0.00 0.00 67 1013.6
20260505034822 14 292 0.0 3.2 0.00 0.00 0.00 67 1013.6
20260505034723 14 292 0.0 3.2 0.00 0.00 0.00 68 1013.7
20260505034622 14 292 0.0 3.2 0.00 0.00 0.00 68 1013.7
20260505034522 14 292 0.0 3.2 0.00 0.00 0.00 68 1013.6
20260505034422 14 292 0.0 3.2 0.00 0.00 0.00 68 1013.5
20260505034322 14 290 0.0 3.2 0.00 0.00 0.00 69 1013.6
20260505034222 14 289 0.0 3.2 0.00 0.00 0.00 69 1013.4
20260505034122 14 289 3.2 3.2 0.00 0.00 0.00 69 1013.5
20260505034022 14 288 3.2 3.2 0.00 0.00 0.00 69 1013.8
20260505033922 14 288 3.2 3.2 0.00 0.00 0.00 69 1013.6
20260505033822 14 288 3.2 3.2 0.00 0.00 0.00 69 1013.6
20260505033722 14 288 3.2 3.2 0.00 0.00 0.00 69 1013.7
20260505033622 14 286 1.6 3.2 0.00 0.00 0.00 69 1013.7
20260505033522 14 285 0.0 3.2 0.00 0.00 0.00 69 1013.8
20260505033422 14 285 0.0 3.2 0.00 0.00 0.00 69 1013.6
20260505033322 14 289 0.0 3.2 0.00 0.00 0.00 69 1013.6
20260505033222 14 292 0.0 3.2 0.00 0.00 0.00 69 1013.8
20260505033122 14 292 0.0 3.2 0.00 0.00 0.00 69 1013.8
20260505033022 14 292 0.0 3.2 0.00 0.00 0.00 69 1013.9
20260505032922 14 292 0.0 3.2 0.00 0.00 0.00 69 1013.6
20260505032822 14 292 1.6 3.2 0.00 0.00 0.00 69 1013.7
20260505032722 14 292 0.0 3.2 0.00 0.00 0.00 69 1013.7
20260505032622 14 292 0.0 3.2 0.00 0.00 0.00 69 1013.9
20260505032522 14 292 0.0 3.2 0.00 0.00 0.00 69 1013.9
20260505032422 14 292 0.0 3.2 0.00 0.00 0.00 69 1013.9
20260505032322 14 292 0.0 3.2 0.00 0.00 0.00 69 1013.8
20260505032222 14 292 0.0 3.2 0.00 0.00 0.00 69 1013.6
20260505032122 14 310 0.0 3.2 0.00 0.00 0.00 69 1013.7
20260505032022 14 11 1.6 3.2 0.00 0.00 0.00 69 1013.8
20260505031922 14 56 1.6 3.2 0.00 0.00 0.00 69 1013.9
20260505031822 14 67 1.6 3.2 0.00 0.00 0.00 69 1013.9
20260505031722 14 75 0.0 3.2 0.00 0.00 0.00 68 1013.7
20260505031622 14 76 0.0 3.2 0.00 0.00 0.00 68 1013.9
20260505031522 14 77 0.0 3.2 0.00 0.00 0.00 68 1013.8
20260505031422 14 71 0.0 3.2 0.00 0.00 0.00 67 1014.0
20260505031322 15 65 0.0 3.2 0.00 0.00 0.00 67 1013.9
20260505031222 15 62 0.0 3.2 0.00 0.00 0.00 67 1013.9
20260505031122 15 61 0.0 3.2 0.00 0.00 0.00 67 1013.9
20260505031022 15 58 3.2 3.2 0.00 0.00 0.00 67 1013.8
20260505030922 15 56 3.2 3.2 0.00 0.00 0.00 67 1013.6
20260505030822 15 55 3.2 3.2 0.00 0.00 0.00 67 1013.9
20260505030722 15 52 1.6 3.2 0.00 0.00 0.00 67 1013.7
20260505030622 15 49 1.6 3.2 0.00 0.00 0.00 68 1013.9
20260505030522 15 48 1.6 3.2 0.00 0.00 0.00 68 1014.0
20260505030422 15 49 0.0 3.2 0.00 0.00 0.00 68 1013.9
20260505030322 15 49 0.0 6.4 0.00 0.00 0.00 68 1013.8
20260505030222 15 53 1.6 6.4 0.00 0.00 0.00 68 1013.9
20260505030122 14 55 3.2 6.4 0.00 0.00 0.00 68 1013.8
20260505030022 14 58 3.2 6.4 0.00 0.00 0.00 68 1013.8
20260505025922 14 59 3.2 6.4 0.00 0.00 0.00 69 1013.8
20260505025822 14 61 3.2 6.4 0.00 0.00 0.00 69 1013.9
20260505025722 14 63 3.2 6.4 0.00 0.00 0.00 69 1013.9
20260505025622 14 64 3.2 6.4 0.00 0.00 0.00 69 1013.9
20260505025522 14 64 3.2 6.4 0.00 0.00 0.00 69 1013.8
20260505025422 14 66 3.2 6.4 0.00 0.00 0.00 69 1013.9
20260505025322 14 66 4.8 6.4 0.00 0.00 0.00 69 1014.0
20260505025222 14 63 4.8 6.4 0.00 0.00 0.00 69 1014.1
20260505025122 14 60 3.2 6.4 0.00 0.00 0.00 69 1014.0
20260505025022 14 52 3.2 3.2 0.00 0.00 0.00 68 1014.2
20260505024922 14 37 3.2 6.4 0.00 0.00 0.00 68 1014.0
20260505024822 14 17 3.2 6.4 0.00 0.00 0.00 68 1014.2
20260505024722 14 14 3.2 6.4 0.00 0.00 0.00 68 1014.1
20260505024622 14 9 3.2 6.4 0.00 0.00 0.00 68 1013.9
20260505024522 14 357 3.2 6.4 0.00 0.00 0.00 68 1014.2
20260505024422 14 345 3.2 6.4 0.00 0.00 0.00 68 1014.2
20260505024322 14 328 3.2 6.4 0.00 0.00 0.00 68 1014.1
20260505024222 14 317 3.2 6.4 0.00 0.00 0.00 69 1014.1
20260505024122 14 304 3.2 6.4 0.00 0.00 0.00 69 1014.3
20260505024022 14 290 3.2 6.4 0.00 0.00 0.00 69 1014.3
20260505023922 14 273 3.2 6.4 0.00 0.00 0.00 69 1014.3
20260505023822 14 109 0.0 3.2 0.00 0.00 0.00 68 1014.5
20260505023722 14 95 0.0 3.2 0.00 0.00 0.00 67 1014.4
20260505023622 14 90 0.0 3.2 0.00 0.00 0.00 67 1014.2
20260505023522 14 90 0.0 3.2 0.00 0.00 0.00 67 1014.2
20260505023422 15 90 0.0 6.4 0.00 0.00 0.00 67 1014.3
20260505023322 15 90 0.0 6.4 0.00 0.00 0.00 67 1014.3
20260505023222 14 90 0.0 6.4 0.00 0.00 0.00 67 1014.3
20260505023122 14 90 0.0 6.4 0.00 0.00 0.00 68 1014.2
20260505023022 14 90 0.0 6.4 0.00 0.00 0.00 68 1014.3
20260505022922 14 90 0.0 6.4 0.00 0.00 0.00 68 1014.3
20260505022822 14 90 0.0 6.4 0.00 0.00 0.00 69 1014.5
20260505022722 14 90 1.6 6.4 0.00 0.00 0.00 69 1014.4
20260505022622 14 90 3.2 6.4 0.00 0.00 0.00 69 1014.3
20260505022522 14 90 3.2 6.4 0.00 0.00 0.00 69 1014.2
20260505022422 14 90 3.2 6.4 0.00 0.00 0.00 69 1014.2
20260505022322 14 90 3.2 6.4 0.00 0.00 0.00 69 1014.4
20260505022222 14 90 4.8 6.4 0.00 0.00 0.00 69 1014.3
20260505022122 14 90 3.2 6.4 0.00 0.00 0.00 69 1014.2
20260505022022 14 90 3.2 6.4 0.00 0.00 0.00 69 1014.4
20260505021923 14 90 3.2 6.4 0.00 0.00 0.00 69 1014.4
20260505021822 15 92 3.2 3.2 0.00 0.00 0.00 69 1014.3
20260505021722 15 94 3.2 3.2 0.00 0.00 0.00 68 1014.4
20260505021622 15 94 3.2 3.2 0.00 0.00 0.00 68 1014.3
20260505021522 15 94 3.2 3.2 0.00 0.00 0.00 68 1014.4
20260505021422 15 94 3.2 3.2 0.00 0.00 0.00 68 1014.1
20260505021322 15 93 3.2 3.2 0.00 0.00 0.00 68 1014.3
20260505021222 15 91 3.2 3.2 0.00 0.00 0.00 67 1014.3
20260505021122 15 88 3.2 3.2 0.00 0.00 0.00 67 1014.3
20260505021022 15 82 3.2 3.2 0.00 0.00 0.00 67 1014.3
20260505020922 15 68 3.2 3.2 0.00 0.00 0.00 67 1014.4
20260505020822 15 39 3.2 3.2 0.00 0.00 0.00 66 1014.2
20260505020722 15 15 3.2 3.2 0.00 0.00 0.00 66 1014.1
20260505020622 15 353 3.2 3.2 0.00 0.00 0.00 66 1014.4
20260505020522 15 341 1.6 3.2 0.00 0.00 0.00 66 1014.4
20260505020422 15 332 1.6 3.2 0.00 0.00 0.00 67 1014.5
20260505020322 15 325 0.0 3.2 0.00 0.00 0.00 67 1014.4
20260505020222 15 321 0.0 3.2 0.00 0.00 0.00 68 1014.6
20260505020122 15 319 1.6 3.2 0.00 0.00 0.00 68 1014.6
20260505020022 15 318 3.2 3.2 0.00 0.00 0.00 68 1014.4
20260505015922 15 316 3.2 3.2 0.00 0.00 0.00 69 1014.6
20260505015822 15 312 3.2 3.2 0.00 0.00 0.00 69 1014.5
20260505015722 15 308 3.2 3.2 0.00 0.00 0.00 69 1014.4
20260505015622 15 306 3.2 3.2 0.00 0.00 0.00 69 1014.6
20260505015522 15 303 3.2 3.2 0.00 0.00 0.00 69 1014.4
20260505015422 15 297 1.6 3.2 0.00 0.00 0.00 69 1014.5
20260505015322 15 300 0.0 3.2 0.00 0.00 0.00 70 1014.5
20260505015222 15 307 0.0 3.2 0.00 0.00 0.00 70 1014.6
20260505015122 15 315 0.0 3.2 0.00 0.00 0.00 70 1014.5
20260505015022 15 0 0.0 0.0 0.00 0.00 0.00 70 1014.5
20260505014922 15 0 0.0 0.0 0.00 0.00 0.00 70 1014.5
20260505014822 15 0 0.0 0.0 0.00 0.00 0.00 70 1014.6
20260505014722 15 22 0.0 3.2 0.00 0.00 0.00 70 1014.4
20260505014622 15 22 0.0 3.2 0.00 0.00 0.00 70 1014.4
20260505014522 14 22 0.0 3.2 0.00 0.00 0.00 70 1014.7
20260505014422 15 22 0.0 3.2 0.00 0.00 0.00 70 1014.7
20260505014322 15 22 0.0 3.2 0.00 0.00 0.00 70 1014.7
20260505014222 15 22 0.0 3.2 0.00 0.00 0.00 70 1014.5
20260505014122 15 22 0.0 3.2 0.00 0.00 0.00 70 1014.4
20260505014022 15 22 0.0 3.2 0.00 0.00 0.00 70 1014.7
20260505013922 15 22 0.0 3.2 0.00 0.00 0.00 70 1014.7
20260505013822 15 22 0.0 3.2 0.00 0.00 0.00 70 1014.5
20260505013723 15 0 0.0 0.0 0.00 0.00 0.00 69 1014.5
20260505013622 15 67 0.0 3.2 0.00 0.00 0.00 69 1014.5
20260505013522 15 67 0.0 3.2 0.00 0.00 0.00 69 1014.7
20260505013422 15 67 0.0 3.2 0.00 0.00 0.00 69 1014.8
20260505013322 15 67 0.0 3.2 0.00 0.00 0.00 69 1014.6
20260505013222 15 67 0.0 3.2 0.00 0.00 0.00 69 1014.7
20260505013122 15 67 0.0 3.2 0.00 0.00 0.00 69 1014.6
20260505013024 15 67 0.0 3.2 0.00 0.00 0.00 69 1014.6
20260505012922 15 67 0.0 3.2 0.00 0.00 0.00 69 1014.7
20260505012822 15 67 0.0 3.2 0.00 0.00 0.00 69 1014.4
20260505012722 15 67 0.0 3.2 0.00 0.00 0.00 69 1014.6
20260505012622 15 67 3.2 3.2 0.00 0.00 0.00 68 1014.5
20260505012522 15 67 3.2 3.2 0.00 0.00 0.00 68 1014.5
20260505012422 15 67 3.2 3.2 0.00 0.00 0.00 68 1014.5
20260505012322 15 67 3.2 3.2 0.00 0.00 0.00 68 1014.7
20260505012222 15 67 3.2 3.2 0.00 0.00 0.00 68 1014.6
20260505012122 15 67 3.2 3.2 0.00 0.00 0.00 68 1014.8
20260505012022 15 65 3.2 3.2 0.00 0.00 0.00 68 1014.6
20260505011922 15 64 3.2 3.2 0.00 0.00 0.00 68 1014.5
20260505011822 15 61 1.6 3.2 0.00 0.00 0.00 67 1014.7
20260505011722 15 59 1.6 3.2 0.00 0.00 0.00 67 1014.5
20260505011622 15 57 1.6 3.2 0.00 0.00 0.00 67 1014.5
20260505011522 15 55 3.2 3.2 0.00 0.00 0.00 67 1014.7
20260505011422 15 53 3.2 3.2 0.00 0.00 0.00 67 1014.6
20260505011322 15 51 3.2 3.2 0.00 0.00 0.00 67 1014.7
20260505011222 15 51 3.2 3.2 0.00 0.00 0.00 66 1014.6
20260505011122 15 51 3.2 3.2 0.00 0.00 0.00 66 1014.6
20260505011022 16 53 3.2 3.2 0.00 0.00 0.00 66 1014.7
20260505010922 16 52 3.2 3.2 0.00 0.00 0.00 66 1014.7
20260505010822 16 52 3.2 3.2 0.00 0.00 0.00 66 1014.7
20260505010722 16 52 3.2 3.2 0.00 0.00 0.00 66 1014.6
20260505010622 16 52 3.2 3.2 0.00 0.00 0.00 66 1014.6
20260505010522 16 52 3.2 3.2 0.00 0.00 0.00 66 1014.7
20260505010422 16 52 3.2 3.2 0.00 0.00 0.00 66 1014.8
20260505010322 16 53 3.2 3.2 0.00 0.00 0.00 66 1014.7
20260505010222 16 53 3.2 3.2 0.00 0.00 0.00 66 1014.8
20260505010122 16 50 3.2 3.2 0.00 0.00 0.00 66 1014.6
20260505010022 16 49 3.2 3.2 0.00 0.00 0.00 66 1014.9
20260505005922 16 48 3.2 3.2 0.00 0.00 0.00 65 1014.6
20260505005822 16 49 3.2 3.2 0.00 0.00 0.00 65 1014.9
20260505005722 16 51 1.6 3.2 0.00 0.00 0.00 65 1015.0
20260505005622 16 51 3.2 3.2 0.00 0.00 0.00 64 1014.9
20260505005522 16 50 1.6 3.2 0.00 0.00 0.00 64 1014.7
20260505005422 16 52 1.6 3.2 0.00 0.00 0.00 64 1015.1
20260505005322 16 51 1.6 3.2 0.00 0.00 0.00 63 1014.9
20260505005222 16 49 0.0 3.2 0.00 0.00 0.00 63 1015.0
20260505005122 16 48 1.6 3.2 0.00 0.00 0.00 63 1015.0
20260505005022 16 42 0.0 3.2 0.00 0.00 0.00 63 1015.0
20260505004922 16 34 1.6 3.2 0.00 0.00 0.00 63 1014.9
20260505004822 16 24 1.6 3.2 0.00 0.00 0.00 63 1015.0
20260505004722 16 12 1.6 3.2 0.00 0.00 0.00 64 1014.8
20260505004622 16 358 1.6 3.2 0.00 0.00 0.00 63 1014.8
20260505004522 16 348 1.6 3.2 0.00 0.00 0.00 63 1014.9
20260505004422 16 341 3.2 3.2 0.00 0.00 0.00 63 1015.0
20260505004322 16 332 3.2 3.2 0.00 0.00 0.00 63 1014.8
20260505004222 16 322 1.6 3.2 0.00 0.00 0.00 63 1014.9
20260505004122 16 315 1.6 3.2 0.00 0.00 0.00 63 1014.9
20260505004022 16 315 1.6 3.2 0.00 0.00 0.00 63 1014.9
20260505003922 16 315 1.6 3.2 0.00 0.00 0.00 63 1015.0
20260505003822 16 315 1.6 3.2 0.00 0.00 0.00 63 1015.1
20260505003722 16 315 0.0 3.2 0.00 0.00 0.00 63 1015.2
20260505003622 16 315 1.6 3.2 0.00 0.00 0.00 63 1015.0
20260505003522 16 315 0.0 3.2 0.00 0.00 0.00 62 1015.0
20260505003422 16 315 0.0 3.2 0.00 0.00 0.00 62 1014.9
20260505003322 16 315 0.0 3.2 0.00 0.00 0.00 62 1014.9
20260505003222 16 313 0.0 3.2 0.00 0.00 0.00 62 1015.1
20260505003122 16 311 0.0 3.2 0.00 0.00 0.00 62 1014.9
20260505003022 16 309 1.6 3.2 0.00 0.00 0.00 62 1014.9
20260505002921 16 307 1.6 3.2 0.00 0.00 0.00 62 1015.1
20260505002822 16 305 0.0 3.2 0.00 0.00 0.00 62 1015.0
20260505002721 16 303 0.0 3.2 0.00 0.00 0.00 62 1014.8
20260505002622 16 301 3.2 3.2 0.00 0.00 0.00 62 1014.9
20260505002522 16 299 3.2 3.2 0.00 0.00 0.00 62 1014.9
20260505002422 16 296 3.2 3.2 0.00 0.00 0.00 62 1015.1
20260505002322 16 293 3.2 3.2 0.00 0.00 0.00 62 1014.9
20260505002222 16 292 1.6 3.2 0.00 0.00 0.00 63 1015.2
20260505002122 16 292 1.6 3.2 0.00 0.00 0.00 63 1014.9
20260505002022 16 292 1.6 3.2 0.00 0.00 0.00 63 1015.2
20260505001922 16 292 3.2 3.2 0.00 0.00 0.00 63 1015.3
20260505001822 16 292 1.6 3.2 0.00 0.00 0.00 63 1015.1
20260505001722 16 293 3.2 3.2 0.00 0.00 0.00 63 1015.2
20260505001622 16 295 3.2 3.2 0.00 0.00 0.00 64 1015.2
20260505001522 16 297 3.2 3.2 0.00 0.00 0.00 64 1015.0
20260505001421 16 299 3.2 3.2 0.00 0.00 0.00 64 1015.3
20260505001322 16 301 3.2 3.2 0.00 0.00 0.00 64 1015.1
20260505001222 16 304 3.2 3.2 0.00 0.00 0.00 64 1015.3
20260505001122 16 307 3.2 3.2 0.00 0.00 0.00 64 1015.1
20260505001022 16 309 3.2 3.2 0.00 0.00 0.00 64 1015.1
20260505000922 16 312 1.6 3.2 0.00 0.00 0.00 64 1015.0
20260505000822 15 315 0.0 3.2 0.00 0.00 0.00 66 1015.2
20260505000722 15 315 0.0 3.2 0.00 0.00 0.00 66 1015.1
20260505000622 15 315 0.0 3.2 0.00 0.00 0.00 66 1015.2
20260505000522 15 315 0.0 3.2 0.00 0.00 0.00 66 1015.3
20260505000422 15 315 0.0 3.2 0.00 0.00 0.00 66 1015.2
20260505000322 15 315 0.0 3.2 0.00 0.00 0.00 66 1015.4
20260505000221 15 315 0.0 3.2 0.00 0.00 0.00 66 1015.3
20260505000122 15 315 0.0 3.2 0.00 0.00 0.00 66 1015.2
20260505000022 15 315 0.0 3.2 0.00 0.00 0.00 66 1015.1
20260504235922 15 315 0.0 3.2 0.00 0.00 0.00 66 1015.4
20260504235822 16 315 0.0 3.2 0.00 0.00 0.00 66 1015.4
20260504235722 16 315 0.0 3.2 0.00 0.00 0.00 66 1015.2
20260504235622 16 315 0.0 3.2 0.00 0.00 0.00 66 1015.2
20260504235522 16 315 0.0 3.2 0.00 0.00 0.00 65 1015.2
20260504235422 16 315 1.6 3.2 0.00 0.00 0.00 65 1015.2
20260504235322 16 315 1.6 3.2 0.00 0.00 0.00 65 1015.2
20260504235221 16 315 1.6 3.2 0.00 0.00 0.00 65 1015.4
20260504235122 16 315 1.6 3.2 0.00 0.00 0.00 65 1015.2
20260504235022 16 315 0.0 3.2 0.00 0.00 0.00 65 1015.4
20260504234921 16 315 0.0 3.2 0.00 0.00 0.00 65 1015.5
20260504234822 16 315 0.0 3.2 0.00 0.00 0.00 65 1015.4
20260504234721 16 315 0.0 3.2 0.00 0.00 0.00 65 1015.6
20260504234621 16 315 0.0 3.2 0.00 0.00 0.00 64 1015.5
20260504234521 16 315 0.0 3.2 0.00 0.00 0.00 64 1015.3
20260504234422 16 311 0.0 3.2 0.00 0.00 0.00 64 1015.7
20260504234322 16 309 0.0 3.2 0.00 0.00 0.00 65 1015.6
20260504234222 16 307 0.0 3.2 0.00 0.00 0.00 65 1015.6
20260504234121 16 303 0.0 3.2 0.00 0.00 0.00 65 1015.6
20260504234021 15 298 0.0 3.2 0.00 0.00 0.00 66 1015.6
20260504233922 16 294 0.0 3.2 0.00 0.00 0.00 67 1015.4
20260504233822 16 290 3.2 3.2 0.00 0.00 0.00 68 1015.8
20260504233722 16 287 3.2 3.2 0.00 0.00 0.00 68 1015.7
20260504233623 15 284 3.2 3.2 0.00 0.00 0.00 68 1015.7
20260504233523 15 286 3.2 6.4 0.00 0.00 0.00 68 1015.8
20260504233423 15 289 0.0 6.4 0.00 0.00 0.00 68 1015.6
20260504233322 15 293 0.0 6.4 0.00 0.00 0.00 68 1015.7
20260504233222 15 296 0.0 6.4 0.00 0.00 0.00 68 1015.6
20260504233121 15 301 1.6 6.4 0.00 0.00 0.00 68 1015.5
20260504233022 16 306 1.6 6.4 0.00 0.00 0.00 68 1015.6
20260504232922 16 311 0.0 6.4 0.00 0.00 0.00 68 1015.6
20260504232822 16 314 0.0 6.4 0.00 0.00 0.00 68 1015.7
20260504232722 16 317 0.0 6.4 0.00 0.00 0.00 68 1015.5
20260504232622 16 321 3.2 6.4 0.00 0.00 0.00 68 1015.6
20260504232522 16 323 3.2 6.4 0.00 0.00 0.00 68 1015.8
20260504232422 16 325 3.2 6.4 0.00 0.00 0.00 68 1015.9
20260504232321 16 327 3.2 3.2 0.00 0.00 0.00 68 1015.7
20260504232222 16 329 3.2 3.2 0.00 0.00 0.00 68 1015.6
20260504232122 16 332 3.2 3.2 0.00 0.00 0.00 68 1015.6
20260504232021 16 335 3.2 3.2 0.00 0.00 0.00 68 1015.6
20260504231921 16 346 3.2 3.2 0.00 0.00 0.00 68 1015.7
20260504231822 15 6 1.6 3.2 0.00 0.00 0.00 68 1015.7
20260504231722 15 23 1.6 3.2 0.00 0.00 0.00 68 1015.6
20260504231622 15 40 1.6 3.2 0.00 0.00 0.00 68 1015.6
20260504231522 15 71 1.6 3.2 0.00 0.00 0.00 68 1015.6
20260504231421 15 95 0.0 3.2 0.00 0.00 0.00 68 1015.6
20260504231322 15 95 0.0 3.2 0.00 0.00 0.00 68 1015.8
20260504231222 16 95 0.0 3.2 0.00 0.00 0.00 68 1015.6
20260504231121 16 95 0.0 3.2 0.00 0.00 0.00 68 1015.6
20260504231022 16 95 0.0 3.2 0.00 0.00 0.00 67 1015.7
20260504230922 16 84 0.0 3.2 0.00 0.00 0.00 67 1015.8
20260504230822 16 67 0.0 3.2 0.00 0.00 0.00 66 1015.8
20260504230721 16 0 0.0 0.0 0.00 0.00 0.00 66 1015.4
20260504230622 16 0 0.0 0.0 0.00 0.00 0.00 66 1015.7
20260504230522 16 0 0.0 0.0 0.00 0.00 0.00 66 1015.7
20260504230422 16 67 0.0 3.2 0.00 0.00 0.00 66 1015.7
20260504230322 16 67 0.0 3.2 0.00 0.00 0.00 66 1015.9
20260504230221 16 67 0.0 3.2 0.00 0.00 0.00 66 1015.9
20260504230122 16 67 0.0 3.2 0.00 0.00 0.00 66 1015.7
20260504230022 16 67 0.0 3.2 0.00 0.00 0.00 66 1015.8
20260504225922 16 67 0.0 3.2 0.00 0.00 0.00 66 1016.0
20260504225822 16 67 0.0 3.2 0.00 0.00 0.00 66 1016.0
20260504225722 16 67 0.0 3.2 0.00 0.00 0.00 67 1015.7
20260504225621 16 62 0.0 3.2 0.00 0.00 0.00 67 1015.8
20260504225521 16 58 0.0 3.2 0.00 0.00 0.00 67 1015.9
20260504225422 16 54 0.0 3.2 0.00 0.00 0.00 67 1016.0
20260504225322 16 50 0.0 3.2 0.00 0.00 0.00 67 1015.8
20260504225223 16 47 0.0 3.2 0.00 0.00 0.00 67 1016.0
20260504225122 16 44 0.0 3.2 0.00 0.00 0.00 66 1015.7
20260504225021 16 44 0.0 3.2 0.00 0.00 0.00 66 1016.0
20260504224922 16 43 0.0 3.2 0.00 0.00 0.00 66 1015.8
20260504224821 16 40 0.0 3.2 0.00 0.00 0.00 66 1016.0
20260504224721 16 37 0.0 3.2 0.00 0.00 0.00 66 1016.0
20260504224622 16 28 1.6 3.2 0.00 0.00 0.00 66 1015.9
20260504224522 16 23 1.6 3.2 0.00 0.00 0.00 66 1015.8
20260504224422 16 18 3.2 3.2 0.00 0.00 0.00 66 1015.9
20260504224322 16 12 3.2 3.2 0.00 0.00 0.00 66 1015.7
20260504224222 16 350 1.6 3.2 0.00 0.00 0.00 67 1016.0
20260504224122 16 322 3.2 3.2 0.00 0.00 0.00 67 1016.0
20260504224022 16 296 1.6 3.2 0.00 0.00 0.00 67 1016.0
20260504223923 16 292 0.0 3.2 0.00 0.00 0.00 67 1015.8
20260504223821 16 292 0.0 3.2 0.00 0.00 0.00 67 1015.8
20260504223722 16 292 0.0 3.2 0.00 0.00 0.00 68 1015.9
20260504223622 16 292 0.0 3.2 0.00 0.00 0.00 68 1015.9
20260504223522 16 292 0.0 3.2 0.00 0.00 0.00 68 1016.0
20260504223422 16 292 0.0 3.2 0.00 0.00 0.00 68 1016.0
20260504223321 16 292 1.6 3.2 0.00 0.00 0.00 69 1016.0
20260504223222 16 292 1.6 3.2 0.00 0.00 0.00 69 1015.9
20260504223122 15 292 1.6 3.2 0.00 0.00 0.00 69 1015.8
20260504223022 15 292 1.6 3.2 0.00 0.00 0.00 69 1016.0
20260504222921 15 292 0.0 3.2 0.00 0.00 0.00 69 1015.8
20260504222822 15 282 0.0 3.2 0.00 0.00 0.00 69 1016.2
20260504222721 15 276 0.0 3.2 0.00 0.00 0.00 69 1016.0
20260504222622 15 271 0.0 3.2 0.00 0.00 0.00 69 1015.9
20260504222522 15 264 0.0 3.2 0.00 0.00 0.00 69 1015.8
20260504222422 15 258 0.0 6.4 0.00 0.00 0.00 69 1016.0
20260504222321 15 257 0.0 6.4 0.00 0.00 0.00 69 1015.9
20260504222221 15 255 0.0 6.4 0.00 0.00 0.00 68 1016.0
20260504222122 15 254 0.0 6.4 0.00 0.00 0.00 68 1016.0
20260504222022 15 253 0.0 6.4 0.00 0.00 0.00 68 1016.2
20260504221921 16 252 0.0 6.4 0.00 0.00 0.00 68 1016.0
20260504221822 16 255 1.6 6.4 0.00 0.00 0.00 68 1016.1
20260504221721 16 258 0.0 6.4 0.00 0.00 0.00 68 1016.2
20260504221622 16 263 1.6 6.4 0.00 0.00 0.00 68 1016.2
20260504221522 16 271 3.2 6.4 0.00 0.00 0.00 68 1016.0
20260504221422 16 284 3.2 3.2 0.00 0.00 0.00 68 1016.1
20260504221322 16 294 3.2 3.2 0.00 0.00 0.00 67 1016.0
20260504221221 16 303 3.2 3.2 0.00 0.00 0.00 67 1016.0
20260504221123 16 311 3.2 3.2 0.00 0.00 0.00 67 1016.1
20260504221021 16 319 1.6 3.2 0.00 0.00 0.00 66 1016.2
20260504220921 16 324 0.0 3.2 0.00 0.00 0.00 66 1016.1
20260504220821 16 325 0.0 3.2 0.00 0.00 0.00 66 1015.9
20260504220722 16 325 0.0 3.2 0.00 0.00 0.00 66 1016.1
20260504220622 16 322 0.0 3.2 0.00 0.00 0.00 67 1015.8
20260504220521 16 318 1.6 3.2 0.00 0.00 0.00 67 1015.9
20260504220421 16 315 0.0 3.2 0.00 0.00 0.00 67 1015.9
20260504220321 16 315 0.0 3.2 0.00 0.00 0.00 68 1016.1
20260504220222 16 305 0.0 3.2 0.00 0.00 0.00 68 1016.0
20260504220121 16 292 0.0 3.2 0.00 0.00 0.00 68 1016.1
20260504220022 16 292 0.0 3.2 0.00 0.00 0.00 69 1016.0
20260504215921 16 292 0.0 3.2 0.00 0.00 0.00 69 1015.9
20260504215822 15 292 0.0 3.2 0.00 0.00 0.00 69 1016.0
20260504215722 15 292 0.0 3.2 0.00 0.00 0.00 69 1015.9
20260504215622 15 292 0.0 3.2 0.00 0.00 0.00 69 1016.2
20260504215522 15 292 0.0 3.2 0.00 0.00 0.00 69 1015.9
20260504215422 15 292 0.0 3.2 0.00 0.00 0.00 69 1016.1
20260504215321 15 292 0.0 3.2 0.00 0.00 0.00 69 1016.2
20260504215222 15 292 0.0 3.2 0.00 0.00 0.00 69 1016.2
20260504215121 15 292 3.2 3.2 0.00 0.00 0.00 68 1015.9
20260504215021 16 292 3.2 3.2 0.00 0.00 0.00 68 1016.1
20260504214921 16 292 0.0 3.2 0.00 0.00 0.00 68 1016.1
20260504214822 16 314 0.0 3.2 0.00 0.00 0.00 67 1015.9
20260504214721 16 324 0.0 3.2 0.00 0.00 0.00 67 1016.2
20260504214621 16 327 0.0 3.2 0.00 0.00 0.00 66 1016.3
20260504214521 16 330 0.0 3.2 0.00 0.00 0.00 66 1016.2
20260504214422 16 336 0.0 3.2 0.00 0.00 0.00 66 1016.3
20260504214321 16 335 0.0 3.2 0.00 0.00 0.00 65 1016.1
20260504214221 17 332 0.0 3.2 0.00 0.00 0.00 65 1016.0
20260504214121 17 330 0.0 3.2 0.00 0.00 0.00 65 1016.2
20260504214021 17 325 0.0 3.2 0.00 0.00 0.00 65 1016.1
20260504213921 16 321 0.0 3.2 0.00 0.00 0.00 65 1016.1
20260504213821 16 318 0.0 3.2 0.00 0.00 0.00 65 1015.9
20260504213722 16 315 1.6 3.2 0.00 0.00 0.00 66 1016.0
20260504213621 16 311 3.2 3.2 0.00 0.00 0.00 66 1016.0
20260504213522 16 307 3.2 3.2 0.00 0.00 0.00 66 1015.9
20260504213421 16 304 3.2 3.2 0.00 0.00 0.00 66 1016.1
20260504213322 16 299 3.2 3.2 0.00 0.00 0.00 66 1015.9
20260504213222 16 296 3.2 3.2 0.00 0.00 0.00 67 1016.1
20260504213121 16 292 3.2 3.2 0.00 0.00 0.00 67 1016.0
20260504213022 16 292 3.2 3.2 0.00 0.00 0.00 67 1016.0
20260504212922 16 292 1.6 3.2 0.00 0.00 0.00 67 1016.1
20260504212821 16 292 1.6 3.2 0.00 0.00 0.00 67 1016.1
20260504212721 16 292 1.6 3.2 0.00 0.00 0.00 67 1015.9
20260504212621 16 292 0.0 3.2 0.00 0.00 0.00 67 1016.0
20260504212521 16 292 0.0 3.2 0.00 0.00 0.00 67 1016.0
20260504212421 16 292 0.0 3.2 0.00 0.00 0.00 67 1015.9
20260504212321 16 292 0.0 3.2 0.00 0.00 0.00 67 1016.1
20260504212221 16 292 1.6 3.2 0.00 0.00 0.00 67 1016.1
20260504212121 16 292 3.2 3.2 0.00 0.00 0.00 67 1016.1
20260504212021 16 292 1.6 3.2 0.00 0.00 0.00 67 1016.1
20260504211921 16 315 0.0 3.2 0.00 0.00 0.00 67 1016.0
20260504211821 16 328 0.0 3.2 0.00 0.00 0.00 67 1016.1
20260504211721 16 332 0.0 3.2 0.00 0.00 0.00 67 1016.0
20260504211622 16 333 0.0 3.2 0.00 0.00 0.00 67 1016.1
20260504211523 16 338 0.0 3.2 0.00 0.00 0.00 67 1016.2
20260504211422 16 338 0.0 3.2 0.00 0.00 0.00 67 1015.9
20260504211322 16 341 0.0 3.2 0.00 0.00 0.00 67 1016.1
20260504211221 16 343 0.0 3.2 0.00 0.00 0.00 67 1016.1
20260504211121 16 346 0.0 3.2 0.00 0.00 0.00 67 1016.2
20260504211021 16 347 0.0 3.2 0.00 0.00 0.00 67 1016.2
20260504210921 16 350 3.2 3.2 0.00 0.00 0.00 67 1016.1
20260504210821 16 351 1.6 3.2 0.00 0.00 0.00 67 1016.1
20260504210721 16 353 3.2 3.2 0.00 0.00 0.00 67 1016.1
20260504210622 16 356 3.2 3.2 0.00 0.00 0.00 67 1016.2
20260504210521 16 350 3.2 3.2 0.00 0.00 0.00 67 1016.1
20260504210421 16 345 3.2 3.2 0.00 0.00 0.00 67 1016.3
20260504210321 16 333 3.2 3.2 0.00 0.00 0.00 67 1016.1
20260504210222 16 318 3.2 3.2 0.00 0.00 0.00 67 1016.4
20260504210121 16 302 3.2 3.2 0.00 0.00 0.00 67 1016.2
20260504210021 16 299 0.0 3.2 0.00 0.00 0.00 67 1016.2
20260504205921 16 302 0.0 3.2 0.00 0.00 0.00 67 1016.1
20260504205822 16 304 0.0 3.2 0.00 0.00 0.00 67 1016.1
20260504205721 16 304 0.0 3.2 0.00 0.00 0.00 67 1016.3
20260504205621 16 304 0.0 3.2 0.00 0.00 0.00 67 1016.2
20260504205521 16 305 0.0 3.2 0.00 0.00 0.00 67 1016.3
20260504205421 16 307 0.0 3.2 0.00 0.00 0.00 67 1016.3
20260504205321 16 309 1.6 3.2 0.00 0.00 0.00 67 1016.3
20260504205221 16 310 3.2 3.2 0.00 0.00 0.00 67 1016.2
20260504205121 16 314 3.2 3.2 0.00 0.00 0.00 68 1016.3
20260504205023 16 315 3.2 3.2 0.00 0.00 0.00 68 1016.4
20260504204922 16 315 1.6 3.2 0.00 0.00 0.00 68 1016.3
20260504204821 16 315 0.0 3.2 0.00 0.00 0.00 68 1016.3
20260504204723 16 0 0.0 0.0 0.00 0.00 0.00 68 1016.2
20260504204622 16 0 0.0 0.0 0.00 0.00 0.00 67 1016.2
20260504204522 16 0 0.0 0.0 0.00 0.00 0.00 67 1016.2
20260504204421 16 0 0.0 0.0 0.00 0.00 0.00 67 1016.2
20260504204321 16 337 0.0 3.2 0.00 0.00 0.00 67 1016.3
20260504204222 16 337 0.0 3.2 0.00 0.00 0.00 67 1016.2
20260504204122 16 337 0.0 3.2 0.00 0.00 0.00 67 1016.4
20260504204021 16 337 0.0 3.2 0.00 0.00 0.00 67 1016.3
20260504203921 16 337 0.0 3.2 0.00 0.00 0.00 67 1016.5
20260504203821 16 337 0.0 3.2 0.00 0.00 0.00 67 1016.5
20260504203721 16 337 0.0 3.2 0.00 0.00 0.00 67 1016.5
20260504203621 16 337 0.0 3.2 0.00 0.00 0.00 67 1016.2
20260504203521 16 339 0.0 3.2 0.00 0.00 0.00 67 1016.4
20260504203421 16 343 0.0 3.2 0.00 0.00 0.00 67 1016.4
20260504203321 16 348 0.0 3.2 0.00 0.00 0.00 67 1016.5
20260504203221 16 353 0.0 3.2 0.00 0.00 0.00 67 1016.5
20260504203121 16 358 0.0 3.2 0.00 0.00 0.00 67 1016.4
20260504203021 16 360 0.0 3.2 0.00 0.00 0.00 67 1016.5
20260504202921 16 358 0.0 3.2 0.00 0.00 0.00 67 1016.3
20260504202821 16 351 0.0 3.2 0.00 0.00 0.00 67 1016.5
20260504202721 16 348 0.0 3.2 0.00 0.00 0.00 67 1016.5
20260504202621 16 346 0.0 3.2 0.00 0.00 0.00 67 1016.5
20260504202521 16 343 1.6 3.2 0.00 0.00 0.00 67 1016.5
20260504202422 16 339 1.6 3.2 0.00 0.00 0.00 67 1016.4
20260504202321 16 334 3.2 3.2 0.00 0.00 0.00 67 1016.5
20260504202221 16 331 3.2 3.2 0.00 0.00 0.00 67 1016.5
20260504202121 16 326 3.2 3.2 0.00 0.00 0.00 67 1016.4
20260504202021 16 321 3.2 3.2 0.00 0.00 0.00 67 1016.4
20260504201921 16 316 1.6 3.2 0.00 0.00 0.00 66 1016.3
20260504201822 16 311 3.2 3.2 0.00 0.00 0.00 67 1016.3
20260504201721 16 307 3.2 3.2 0.00 0.00 0.00 67 1016.4
20260504201621 16 303 1.6 3.2 0.00 0.00 0.00 67 1016.5
20260504201522 16 300 1.6 3.2 0.00 0.00 0.00 66 1016.4
20260504201422 16 294 0.0 3.2 0.00 0.00 0.00 66 1016.5
20260504201322 16 289 0.0 3.2 0.00 0.00 0.00 66 1016.3
20260504201222 16 287 0.0 3.2 0.00 0.00 0.00 66 1016.4
20260504201121 16 288 0.0 3.2 0.00 0.00 0.00 66 1016.4
20260504201021 16 286 0.0 3.2 0.00 0.00 0.00 65 1016.4
20260504200921 16 285 1.6 3.2 0.00 0.00 0.00 65 1016.5
20260504200821 16 286 0.0 3.2 0.00 0.00 0.00 65 1016.5
20260504200721 16 284 0.0 3.2 0.00 0.00 0.00 65 1016.3
20260504200621 16 278 0.0 3.2 0.00 0.00 0.00 65 1016.3
20260504200521 16 270 1.6 3.2 0.00 0.00 0.00 66 1016.5
20260504200421 16 246 1.6 3.2 0.00 0.00 0.00 66 1016.2
20260504200321 16 206 1.6 3.2 0.00 0.00 0.00 66 1016.5
20260504200221 16 169 1.6 3.2 0.00 0.00 0.00 66 1016.1
20260504200121 16 151 3.2 3.2 0.00 0.00 0.00 66 1016.2
20260504200021 16 142 3.2 3.2 0.00 0.00 0.00 66 1016.4
20260504195921 16 136 1.6 3.2 0.00 0.00 0.00 66 1016.2
20260504195822 16 135 0.0 3.2 0.00 0.00 0.00 66 1016.1
20260504195721 16 135 0.0 3.2 0.00 0.00 0.00 66 1016.1
20260504195621 16 135 0.0 3.2 0.00 0.00 0.00 67 1016.4
20260504195521 16 135 1.6 3.2 0.00 0.00 0.00 67 1016.3
20260504195421 16 135 3.2 3.2 0.00 0.00 0.00 66 1016.1
20260504195321 16 135 3.2 3.2 0.00 0.00 0.00 66 1016.2
20260504195221 16 135 3.2 3.2 0.00 0.00 0.00 66 1016.4
20260504195121 16 135 3.2 3.2 0.00 0.00 0.00 66 1016.3
20260504195021 16 135 3.2 3.2 0.00 0.00 0.00 66 1016.1
20260504194921 16 135 3.2 3.2 0.00 0.00 0.00 66 1016.2
20260504194821 16 135 1.6 3.2 0.00 0.00 0.00 66 1016.2
20260504194721 16 135 0.0 3.2 0.00 0.00 0.00 66 1016.3
20260504194621 16 135 0.0 3.2 0.00 0.00 0.00 66 1016.0
20260504194521 16 135 0.0 3.2 0.00 0.00 0.00 66 1016.2
20260504194421 16 135 0.0 3.2 0.00 0.00 0.00 66 1016.2
20260504194321 16 135 0.0 3.2 0.00 0.00 0.00 66 1016.3
20260504194221 16 135 1.6 3.2 0.00 0.00 0.00 67 1016.2
20260504194121 16 135 1.6 3.2 0.00 0.00 0.00 67 1016.4
20260504194022 16 135 1.6 3.2 0.00 0.00 0.00 67 1016.3
20260504193921 16 135 1.6 3.2 0.00 0.00 0.00 67 1015.8
20260504193821 16 135 1.6 3.2 0.00 0.00 0.00 67 1015.8
20260504193721 16 135 0.0 3.2 0.00 0.00 0.00 67 1016.2
20260504193621 16 135 0.0 3.2 0.00 0.00 0.00 67 1016.3
20260504193521 16 134 0.0 3.2 0.00 0.00 0.00 66 1016.1
20260504193421 16 132 1.6 3.2 0.00 0.00 0.00 66 1016.3
20260504193321 16 129 0.0 3.2 0.00 0.00 0.00 66 1016.1
20260504193221 16 128 1.6 3.2 0.00 0.00 0.00 66 1016.2
20260504193121 16 124 1.6 3.2 0.00 0.00 0.00 66 1016.1
20260504193021 16 117 1.6 3.2 0.00 0.00 0.00 66 1016.1
20260504192921 16 102 1.6 3.2 0.00 0.00 0.00 65 1016.1
20260504192821 16 78 3.2 3.2 0.00 0.00 0.00 65 1016.2
20260504192721 16 27 3.2 6.4 0.00 0.00 0.00 65 1016.1
20260504192621 17 360 3.2 6.4 0.00 0.00 0.00 64 1016.0
20260504192521 17 350 3.2 6.4 0.00 0.00 0.00 63 1016.1
20260504192421 17 343 3.2 6.4 0.00 0.00 0.00 62 1016.1
20260504192321 17 338 3.2 6.4 0.00 0.00 0.00 62 1016.0
20260504192221 17 336 0.0 6.4 0.00 0.00 0.00 61 1016.2
20260504192121 17 335 0.0 6.4 0.00 0.00 0.00 61 1016.2
20260504192021 17 335 1.6 6.4 0.00 0.00 0.00 61 1016.0
20260504191921 17 335 3.2 6.4 0.00 0.00 0.00 61 1016.1
20260504191821 17 334 3.2 6.4 0.00 0.00 0.00 61 1016.0
20260504191721 17 334 3.2 6.4 0.00 0.00 0.00 61 1016.1
20260504191621 17 334 3.2 6.4 0.00 0.00 0.00 61 1016.3
20260504191521 17 334 3.2 6.4 0.00 0.00 0.00 61 1016.2
20260504191421 17 334 6.4 6.4 0.00 0.00 0.00 61 1016.0
20260504191321 17 334 6.4 6.4 0.00 0.00 0.00 62 1016.3
20260504191221 17 335 4.8 6.4 0.00 0.00 0.00 62 1016.1
20260504191121 17 336 6.4 6.4 0.00 0.00 0.00 62 1016.2
20260504191021 17 336 4.8 9.7 0.00 0.00 0.00 62 1016.2
20260504190921 17 336 4.8 9.7 0.00 0.00 0.00 63 1016.1
20260504190821 17 337 4.8 9.7 0.00 0.00 0.00 63 1016.2
20260504190721 17 337 3.2 9.7 0.00 0.00 0.00 63 1015.9
20260504190621 17 337 4.8 9.7 0.00 0.00 0.00 63 1016.1
20260504190521 17 337 4.8 9.7 0.00 0.00 0.00 63 1016.0
20260504190421 17 337 4.8 9.7 0.00 0.00 0.00 63 1016.0
20260504190321 17 337 4.8 9.7 0.00 0.00 0.00 64 1015.9
20260504190221 17 336 6.4 9.7 0.00 0.00 0.00 64 1015.9
20260504190121 17 334 6.4 9.7 0.00 0.00 0.00 64 1016.1
20260504190021 17 332 6.4 9.7 0.00 0.00 0.00 64 1016.4
20260504185921 17 331 6.4 9.7 0.00 0.00 0.00 64 1016.1
20260504185821 17 330 6.4 9.7 0.00 0.00 0.00 64 1015.9
20260504185721 17 328 6.4 9.7 0.00 0.00 0.00 65 1016.1
20260504185621 17 317 4.8 9.7 0.00 0.00 0.00 65 1016.0
20260504185521 16 290 3.2 3.2 0.00 0.00 0.00 66 1016.0
20260504185421 16 268 3.2 3.2 0.00 0.00 0.00 66 1015.8
20260504185321 16 260 3.2 3.2 0.00 0.00 0.00 66 1015.8
20260504185221 16 245 1.6 3.2 0.00 0.00 0.00 66 1015.8
20260504185121 16 240 0.0 3.2 0.00 0.00 0.00 66 1016.0
20260504185021 16 239 0.0 3.2 0.00 0.00 0.00 66 1015.9
20260504184921 16 239 0.0 3.2 0.00 0.00 0.00 67 1015.9
20260504184821 16 239 0.0 3.2 0.00 0.00 0.00 66 1016.0
20260504184721 16 252 0.0 3.2 0.00 0.00 0.00 66 1016.2
20260504184621 17 285 1.6 3.2 0.00 0.00 0.00 66 1016.0
20260504184521 17 357 1.6 3.2 0.00 0.00 0.00 66 1016.0
20260504184421 17 30 3.2 3.2 0.00 0.00 0.00 65 1016.2
20260504184321 17 46 1.6 3.2 0.00 0.00 0.00 65 1016.1
20260504184221 17 51 0.0 3.2 0.00 0.00 0.00 65 1016.0
20260504184121 17 54 0.0 3.2 0.00 0.00 0.00 65 1015.8
20260504184021 17 55 0.0 3.2 0.00 0.00 0.00 65 1016.0
20260504183921 17 57 0.0 3.2 0.00 0.00 0.00 65 1015.9
20260504183821 17 58 0.0 3.2 0.00 0.00 0.00 65 1015.8
20260504183721 17 62 1.6 3.2 0.00 0.00 0.00 65 1015.9
20260504183621 17 65 1.6 3.2 0.00 0.00 0.00 65 1015.9
20260504183521 17 67 1.6 3.2 0.00 0.00 0.00 65 1015.9
20260504183421 17 68 0.0 3.2 0.00 0.00 0.00 65 1016.0
20260504183321 17 69 0.0 3.2 0.00 0.00 0.00 65 1015.8
20260504183221 17 68 0.0 3.2 0.00 0.00 0.00 65 1015.8
20260504183121 17 68 1.6 3.2 0.00 0.00 0.00 65 1015.7
20260504183022 17 68 1.6 3.2 0.00 0.00 0.00 64 1015.6
20260504182921 17 66 3.2 3.2 0.00 0.00 0.00 64 1016.1
20260504182821 17 64 3.2 3.2 0.00 0.00 0.00 64 1015.7
20260504182721 17 62 3.2 3.2 0.00 0.00 0.00 63 1015.8
20260504182621 17 59 1.6 3.2 0.00 0.00 0.00 63 1015.9
20260504182521 17 57 1.6 3.2 0.00 0.00 0.00 63 1015.7
20260504182421 17 58 3.2 3.2 0.00 0.00 0.00 63 1015.8
20260504182321 17 57 3.2 3.2 0.00 0.00 0.00 63 1015.8
20260504182221 17 57 1.6 3.2 0.00 0.00 0.00 63 1015.8
20260504182121 17 61 1.6 3.2 0.00 0.00 0.00 64 1015.9
20260504182021 17 65 0.0 3.2 0.00 0.00 0.00 64 1016.0
20260504181921 17 71 0.0 3.2 0.00 0.00 0.00 64 1016.0
20260504181821 17 78 1.6 3.2 0.00 0.00 0.00 64 1015.8
20260504181721 17 84 1.6 3.2 0.00 0.00 0.00 64 1015.6
20260504181621 17 90 1.6 3.2 0.00 0.00 0.00 64 1015.8
20260504181521 17 93 0.0 3.2 0.00 0.00 0.00 64 1015.7
20260504181421 17 94 0.0 3.2 0.00 0.00 0.00 64 1015.7
20260504181322 17 94 0.0 3.2 0.00 0.00 0.00 64 1015.8
20260504181221 17 95 1.6 3.2 0.00 0.00 0.00 64 1015.7
20260504181121 17 97 1.6 3.2 0.00 0.00 0.00 64 1015.8
20260504181021 17 103 1.6 3.2 0.00 0.00 0.00 64 1015.7
20260504180921 17 112 1.6 3.2 0.00 0.00 0.00 64 1015.8
20260504180821 17 112 0.0 3.2 0.00 0.00 0.00 64 1015.7
20260504180721 17 112 0.0 3.2 0.00 0.00 0.00 64 1015.6
20260504180621 17 112 0.0 3.2 0.00 0.00 0.00 63 1015.8
20260504180521 17 112 0.0 3.2 0.00 0.00 0.00 63 1015.8
20260504180421 17 112 0.0 3.2 0.00 0.00 0.00 64 1015.6
20260504180321 17 111 0.0 3.2 0.00 0.00 0.00 64 1015.5
20260504180221 17 108 0.0 3.2 0.00 0.00 0.00 64 1015.7
20260504180121 17 105 0.0 3.2 0.00 0.00 0.00 64 1015.6
20260504180021 17 103 0.0 3.2 0.00 0.00 0.00 63 1015.8
20260504175921 17 103 0.0 6.4 0.00 0.00 0.00 64 1015.7
20260504175821 17 101 1.6 6.4 0.00 0.00 0.00 63 1015.6
20260504175721 17 99 0.0 6.4 0.00 0.00 0.00 64 1015.7
20260504175621 17 97 1.6 6.4 0.00 0.00 0.00 64 1015.4
20260504175521 17 95 1.6 6.4 0.00 0.00 0.00 64 1015.4
20260504175421 17 93 1.6 6.4 0.00 0.00 0.00 63 1015.5
20260504175321 17 92 1.6 6.4 0.00 0.00 0.00 63 1015.4
20260504175221 17 90 3.2 6.4 0.00 0.00 0.00 63 1015.4
20260504175121 17 90 1.6 6.4 0.00 0.00 0.00 63 1015.5
20260504175021 17 90 3.2 6.4 0.00 0.00 0.00 63 1015.7
20260504174921 17 87 3.2 6.4 0.00 0.00 0.00 63 1015.6
20260504174821 17 88 3.2 3.2 0.00 0.00 0.00 63 1015.5
20260504174721 17 88 3.2 3.2 0.00 0.00 0.00 63 1015.5
20260504174621 17 88 3.2 3.2 0.00 0.00 0.00 63 1015.5
20260504174522 17 90 3.2 3.2 0.00 0.00 0.00 63 1015.6
20260504174421 17 91 1.6 3.2 0.00 0.00 0.00 63 1015.8
20260504174321 17 92 3.2 3.2 0.00 0.00 0.00 63 1015.6
20260504174221 17 96 3.2 3.2 0.00 0.00 0.00 63 1015.7
20260504174121 17 99 3.2 3.2 0.00 0.00 0.00 63 1015.8
20260504174021 17 102 1.6 3.2 0.00 0.00 0.00 63 1015.5
20260504173921 17 104 0.0 3.2 0.00 0.00 0.00 62 1015.6
20260504173821 17 103 1.6 3.2 0.00 0.00 0.00 62 1015.5
20260504173721 17 105 3.2 3.2 0.00 0.00 0.00 62 1015.8
20260504173621 17 108 3.2 3.2 0.00 0.00 0.00 62 1015.6
20260504173521 18 109 3.2 3.2 0.00 0.00 0.00 62 1015.6
20260504173421 18 114 3.2 3.2 0.00 0.00 0.00 62 1015.6
20260504173321 18 118 3.2 3.2 0.00 0.00 0.00 63 1015.6
20260504173221 18 120 1.6 3.2 0.00 0.00 0.00 63 1015.6
20260504173121 18 121 1.6 3.2 0.00 0.00 0.00 62 1015.7
20260504173021 18 120 1.6 3.2 0.00 0.00 0.00 62 1015.7
20260504172921 18 120 0.0 3.2 0.00 0.00 0.00 63 1015.6
20260504172821 18 120 1.6 3.2 0.00 0.00 0.00 62 1015.7
20260504172721 18 120 1.6 3.2 0.00 0.00 0.00 62 1015.7
20260504172621 18 118 3.2 3.2 0.00 0.00 0.00 62 1015.5
20260504172521 18 115 1.6 3.2 0.00 0.00 0.00 62 1015.6
20260504172421 18 112 1.6 3.2 0.00 0.00 0.00 62 1015.7
20260504172321 18 109 1.6 6.4 0.00 0.00 0.00 62 1015.8
20260504172221 18 107 1.6 6.4 0.00 0.00 0.00 62 1015.6
20260504172121 18 105 1.6 6.4 0.00 0.00 0.00 63 1015.8
20260504172021 18 104 1.6 6.4 0.00 0.00 0.00 62 1015.7
20260504171921 18 105 0.0 6.4 0.00 0.00 0.00 63 1015.8
20260504171821 18 104 1.6 6.4 0.00 0.00 0.00 63 1015.7
20260504171721 18 104 3.2 6.4 0.00 0.00 0.00 63 1015.9
20260504171621 18 105 3.2 6.4 0.00 0.00 0.00 63 1015.8
20260504171521 18 104 1.6 6.4 0.00 0.00 0.00 63 1015.7
20260504171421 18 103 3.2 6.4 0.00 0.00 0.00 62 1015.6
20260504171321 18 104 3.2 6.4 0.00 0.00 0.00 62 1015.5
20260504171221 18 105 3.2 6.4 0.00 0.00 0.00 62 1015.9
20260504171121 18 106 3.2 6.4 0.00 0.00 0.00 62 1015.8
20260504171021 18 107 3.2 6.4 0.00 0.00 0.00 62 1015.7
20260504170921 18 106 3.2 6.4 0.00 0.00 0.00 62 1015.5
20260504170821 18 107 3.2 6.4 0.00 0.00 0.00 63 1015.6
20260504170721 18 105 3.2 6.4 0.00 0.00 0.00 63 1015.6
20260504170621 18 101 3.2 6.4 0.00 0.00 0.00 62 1015.9
20260504170521 18 101 3.2 3.2 0.00 0.00 0.00 62 1015.8
20260504170421 18 96 3.2 3.2 0.00 0.00 0.00 61 1015.8
20260504170321 18 91 3.2 3.2 0.00 0.00 0.00 61 1015.6
20260504160421 20 96 1.6 6.4 0.00 0.00 0.00 61 1015.8
20260504160321 20 99 3.2 6.4 0.00 0.00 0.00 61 1015.9
20260504160221 20 98 3.2 6.4 0.00 0.00 0.00 61 1015.8
20260504160121 20 99 3.2 6.4 0.00 0.00 0.00 61 1015.8
20260504151121 20 128 3.2 9.7 0.00 0.00 0.00 58 1016.0
20260504151021 20 132 3.2 9.7 0.00 0.00 0.00 59 1016.1
20260504150921 20 136 3.2 9.7 0.00 0.00 0.00 59 1015.8
20260504150821 20 135 3.2 9.7 0.00 0.00 0.00 59 1016.0
20260504150721 20 135 3.2 9.7 0.00 0.00 0.00 58 1016.0
20260504150621 20 137 4.8 9.7 0.00 0.00 0.00 59 1016.0
20260504150521 20 136 3.2 9.7 0.00 0.00 0.00 59 1016.1
20260504150421 20 133 3.2 9.7 0.00 0.00 0.00 58 1016.0
20260504150321 20 130 3.2 9.7 0.00 0.00 0.00 59 1016.0
20260504150221 20 128 4.8 9.7 0.00 0.00 0.00 59 1016.0
20260504150121 20 128 6.4 9.7 0.00 0.00 0.00 59 1015.9
20260504141321 20 120 6.4 12.9 0.00 0.00 0.00 57 1016.2
20260504141221 20 119 6.4 12.9 0.00 0.00 0.00 56 1016.2
20260504141121 21 120 6.4 12.9 0.00 0.00 0.00 56 1016.3
20260504141021 21 119 6.4 12.9 0.00 0.00 0.00 57 1016.2
20260504140921 21 116 4.8 12.9 0.00 0.00 0.00 57 1016.3
20260504140821 21 111 6.4 12.9 0.00 0.00 0.00 56 1016.2
20260504140721 21 106 6.4 12.9 0.00 0.00 0.00 55 1016.1
20260504140621 21 106 6.4 12.9 0.00 0.00 0.00 56 1016.1
20260504140521 21 108 6.4 12.9 0.00 0.00 0.00 56 1016.1
20260504140421 21 108 4.8 12.9 0.00 0.00 0.00 58 1016.2
20260504140321 21 108 6.4 11.3 0.00 0.00 0.00 57 1016.1
20260504140220 21 105 6.4 11.3 0.00 0.00 0.00 56 1016.2
20260504140121 21 102 6.4 12.9 0.00 0.00 0.00 57 1016.2
20260504130820 22 110 4.8 12.9 0.00 0.00 0.00 58 1016.7
20260504130720 21 112 6.4 14.5 0.00 0.00 0.00 58 1016.6
20260504130621 21 111 8.0 14.5 0.00 0.00 0.00 55 1016.7
20260504130520 21 106 4.8 14.5 0.00 0.00 0.00 55 1016.5
20260504130421 21 111 6.4 14.5 0.00 0.00 0.00 55 1016.9
20260504130320 21 116 6.4 14.5 0.00 0.00 0.00 55 1016.8
20260504130221 21 116 6.4 14.5 0.00 0.00 0.00 57 1016.8
20260504130121 21 114 8.0 17.7 0.00 0.00 0.00 56 1017.0
20260504120221 22 103 6.4 12.9 0.00 0.00 0.00 53 1017.1
20260504120121 21 107 6.4 12.9 0.00 0.00 0.00 50 1017.1
20260504110721 21 112 6.4 17.7 0.00 0.00 0.00 50 1017.2
20260504110620 21 114 8.0 17.7 0.00 0.00 0.00 50 1017.4
20260504110521 21 118 6.4 17.7 0.00 0.00 0.00 49 1017.5
20260504110420 21 119 6.4 17.7 0.00 0.00 0.00 51 1017.2
20260504110320 21 126 6.4 17.7 0.00 0.00 0.00 51 1017.1
20260504110221 21 128 6.4 17.7 0.00 0.00 0.00 48 1017.2
20260504110120 21 133 3.2 17.7 0.00 0.00 0.00 48 1017.2